Location: Maiden
(35.5760°N, 81.2120°W)
Time: 13:18:32
(UTC-04:00)

CZ-2C R/B - Pass Details

Date: 14 June 2018
Orbit: 705 x 907 km, 98.2° (Epoch: 19 October)

Event Time Altitude Azimuth Distance (km) Brightness Sun altitude
Exits shadow 23:43:24 71° 171° (S) 950 3.2 -26.4°
Maximum altitude 23:44:05 88° 257° (WSW) 908 3.2 -26.4°
Drops below altitude 10° 23:49:56 10° 347° (NNW) 2,596 6.7 -26.9°
Sets 23:52:22 0° 348° (NNW) 3,537 7.7 -27.1°
